Regional Weather Roundup
Issued by NWS

Home | Current Version | Previous Version | Graphics & Text | Print | Product List | Glossary On
Versions: 1 2 3 4 5 6 7 8 9 10 11 12 13 14 15 16 17 18 19 20 21 22 23 24 25 26 27 28 29 30 31 32 33 34 35 36 37 38 39 40 41 42 43 44 45 46 47 48 49 50
195
ASUS43 KLMK 200410
RWRKY
KENTUCKY REGIONAL WEATHER ROUNDUP
NATIONAL WEATHER SERVICE LOUISVILLE KY
1200 AM EDT FRI OCT 20 2017

NOTE "FAIR" INDICATES FEW OR NO CLOUDS BELOW 12,000 FEET
WITH NO SIGNIFICANT WEATHER AND/OR OBSTRUCTIONS TO VISIBILITY.

KYZ001>023-026-027-061>063-070>075-200500-
WESTERN AND SOUTH CENTRAL KENTUCKY

CITY           SKY/WX    TMP DP  RH WIND       PRES   REMARKS
PADUCAH        FAIR      52  48  86 CALM      30.21R
HENDERSON      FAIR      52  50  93 CALM      30.22
OWENSBORO      FAIR      56  53  90 CALM      30.23S
HOPKINSVILLE   FAIR      55  50  82 CALM      30.22S
BOWLING GREEN  FAIR      52  50  93 CALM      30.25R
GLASGOW        FAIR      49  49 100 CALM      30.26R
$$

KYZ024-025-028>034-038-045-046-053-200500-
NORTH CENTRAL KENTUCKY

CITY           SKY/WX    TMP DP  RH WIND       PRES   REMARKS
LOUISVILLE/SDF FAIR      58  53  84 SE5       30.24R
LOUISVILLE/LOU FAIR      56  53  90 CALM      30.25R
FORT KNOX      FAIR      53  51  92 CALM      30.23S
$$

KYZ035>037-039>044-047>052-055>060-089>105-200500-
NORTHEAST KENTUCKY

CITY           SKY/WX    TMP DP  RH WIND       PRES   REMARKS
LEXINGTON      FAIR      52  47  83 S6        30.26S
COVINGTON      MOCLDY    55  51  86 S5        30.23S
FRANKFORT      FAIR      51  46  83 CALM      30.25R
$$

KYZ054-064>069-076>088-106>120-200500-
SOUTHEAST KENTUCKY

CITY           SKY/WX    TMP DP  RH WIND       PRES   REMARKS
JACKSON        FAIR      57  46  66 CALM      30.28R
LONDON         FAIR      49  46  90 CALM      30.28R
SOMERSET       FAIR      46  46 100 CALM      30.29S
MIDDLESBORO    FAIR      47  47 100 CALM      30.30S
MONTICELLO     FAIR      45  44  97 CALM      30.29S
$$





USA.gov is the U.S. government's official web portal to all federal, state and local government web resources and services.